Météo par heure à Alibunar

Ce jour, 15 Mai, Samedi

Heure Température Précipitation Vent Pression Humidité
00:00 +12°C° 0 mm 1 m/s 750 mmHg 89%
01:00 +12°C° 0 mm 1 m/s 750 mmHg 89%
02:00 +12°C° 0 mm 1 m/s 749 mmHg 89%
03:00 +12°C° 0 mm 1 m/s 749 mmHg 89%
04:00 +10°C° 0 mm 0 m/s 749 mmHg 90%
05:00 +13°C° 0 mm 1 m/s 749 mmHg 86%
06:00 +14°C° 0 mm 1 m/s 750 mmHg 82%
07:00 +15°C° 0 mm 2 m/s 750 mmHg 78%
08:00 +17°C° 0 mm 2 m/s 750 mmHg 70%
09:00 +19°C° 0 mm 2 m/s 749 mmHg 62%
10:00 +20°C° 0 mm 2 m/s 749 mmHg 55%
11:00 +21°C° 0.1 mm 2 m/s 749 mmHg 50%
12:00 +23°C° 0.1 mm 2 m/s 748 mmHg 45%
13:00 +24°C° 0.1 mm 1 m/s 748 mmHg 40%
14:00 +24°C° 0 mm 1 m/s 748 mmHg 40%
15:00 +24°C° 0 mm 1 m/s 748 mmHg 41%
16:00 +24°C° 0 mm 1 m/s 747 mmHg 41%
17:00 +22°C° 0 mm 1 m/s 747 mmHg 47%
18:00 +21°C° 0 mm 1 m/s 747 mmHg 54%
19:00 +19°C° 0 mm 1 m/s 747 mmHg 60%
20:00 +19°C° 0.1 mm 1 m/s 747 mmHg 64%
21:00 +17°C° 0.1 mm 2 m/s 748 mmHg 68%
22:00 +17°C° 0.1 mm 2 m/s 748 mmHg 71%
23:00 +16°C° 0 mm 2 m/s 748 mmHg 76%

Demain, 16 Mai, Dimanche

Heure Température Précipitation Vent Pression Humidité
00:00 +16°C° 0 mm 2 m/s 748 mmHg 80%
01:00 +15°C° 0 mm 2 m/s 748 mmHg 84%
02:00 +15°C° 0 mm 2 m/s 748 mmHg 85%
03:00 +15°C° 0 mm 2 m/s 748 mmHg 86%
04:00 +14°C° 0 mm 1 m/s 748 mmHg 87%
05:00 +15°C° 0.1 mm 1 m/s 748 mmHg 86%
06:00 +15°C° 0.1 mm 1 m/s 749 mmHg 84%
07:00 +16°C° 0.1 mm 1 m/s 749 mmHg 83%
08:00 +16°C° 0.9 mm 1 m/s 749 mmHg 82%
09:00 +16°C° 0.9 mm 1 m/s 749 mmHg 80%
10:00 +17°C° 0.9 mm 2 m/s 749 mmHg 79%
11:00 +18°C° 0.4 mm 2 m/s 749 mmHg 74%
12:00 +19°C° 0.4 mm 2 m/s 749 mmHg 68%
13:00 +20°C° 0.4 mm 3 m/s 749 mmHg 63%
14:00 +20°C° 0.2 mm 3 m/s 749 mmHg 61%
15:00 +20°C° 0.2 mm 3 m/s 749 mmHg 59%
16:00 +20°C° 0.2 mm 4 m/s 749 mmHg 57%
17:00 +19°C° 0 mm 3 m/s 749 mmHg 63%
18:00 +17°C° 0 mm 2 m/s 749 mmHg 70%
19:00 +16°C° 0 mm 1 m/s 749 mmHg 76%
20:00 +15°C° 0 mm 1 m/s 749 mmHg 78%
21:00 +15°C° 0 mm 1 m/s 749 mmHg 79%
22:00 +15°C° 0 mm 1 m/s 749 mmHg 80%
23:00 +14°C° 0 mm 1 m/s 748 mmHg 82%

Après-demain, 17 Mai, Lundi

Heure Température Précipitation Vent Pression Humidité
00:00 +14°C° 0 mm 2 m/s 748 mmHg 83%
01:00 +14°C° 0 mm 2 m/s 748 mmHg 84%
02:00 +14°C° 0 mm 2 m/s 748 mmHg 83%
03:00 +14°C° 0 mm 2 m/s 748 mmHg 83%
04:00 +14°C° 0 mm 2 m/s 747 mmHg 82%
05:00 +14°C° 0.5 mm 2 m/s 747 mmHg 86%
06:00 +14°C° 0.5 mm 2 m/s 748 mmHg 89%
07:00 +14°C° 0.5 mm 2 m/s 748 mmHg 93%
08:00 +15°C° 0.1 mm 2 m/s 748 mmHg 89%
09:00 +16°C° 0.1 mm 3 m/s 747 mmHg 84%
10:00 +18°C° 0.1 mm 3 m/s 747 mmHg 80%
11:00 +18°C° 0.7 mm 3 m/s 747 mmHg 83%
12:00 +17°C° 0.7 mm 2 m/s 747 mmHg 86%
13:00 +17°C° 0.7 mm 2 m/s 747 mmHg 89%
14:00 +18°C° 0.5 mm 2 m/s 747 mmHg 88%
15:00 +18°C° 0.5 mm 3 m/s 747 mmHg 88%
16:00 +18°C° 0.5 mm 3 m/s 747 mmHg 87%
17:00 +17°C° 0.5 mm 3 m/s 748 mmHg 89%
18:00 +16°C° 0.5 mm 3 m/s 748 mmHg 91%
19:00 +13°C° 0.5 mm 3 m/s 749 mmHg 93%
20:00 +13°C° 0 mm 3 m/s 749 mmHg 93%
21:00 +13°C° 0 mm 2 m/s 749 mmHg 93%
22:00 +12°C° 0 mm 2 m/s 750 mmHg 93%
23:00 +12°C° 0.2 mm 2 m/s 750 mmHg 93%

18 Mai, Mardi

Heure Température Précipitation Vent Pression Humidité
00:00 +12°C° 0.2 mm 1 m/s 750 mmHg 93%
01:00 +12°C° 0.2 mm 1 m/s 750 mmHg 93%
02:00 +12°C° 0 mm 2 m/s 750 mmHg 93%
03:00 +12°C° 0 mm 2 m/s 750 mmHg 94%
04:00 +12°C° 0 mm 2 m/s 750 mmHg 94%
05:00 +12°C° 0.1 mm 2 m/s 751 mmHg 93%
06:00 +11°C° 0.1 mm 3 m/s 751 mmHg 92%
07:00 +12°C° 0.1 mm 3 m/s 751 mmHg 91%
08:00 +12°C° 0.1 mm 3 m/s 752 mmHg 89%
09:00 +12°C° 0.1 mm 3 m/s 752 mmHg 87%
10:00 +13°C° 0.1 mm 2 m/s 752 mmHg 85%
11:00 +14°C° 0.1 mm 3 m/s 752 mmHg 76%
12:00 +16°C° 0.1 mm 3 m/s 752 mmHg 67%
13:00 +18°C° 0.1 mm 3 m/s 752 mmHg 58%
14:00 +18°C° 0 mm 3 m/s 752 mmHg 57%
15:00 +18°C° 0 mm 4 m/s 752 mmHg 56%
16:00 +18°C° 0 mm 4 m/s 752 mmHg 55%
17:00 +17°C° 0 mm 3 m/s 751 mmHg 60%
18:00 +16°C° 0 mm 2 m/s 751 mmHg 65%
19:00 +15°C° 0 mm 2 m/s 751 mmHg 70%
20:00 +14°C° 0 mm 2 m/s 752 mmHg 71%
21:00 +14°C° 0 mm 2 m/s 752 mmHg 72%
22:00 +13°C° 0 mm 2 m/s 752 mmHg 73%
23:00 +13°C° 0 mm 2 m/s 752 mmHg 76%

19 Mai, Mercredi

Heure Température Précipitation Vent Pression Humidité
00:00 +12°C° 0 mm 2 m/s 753 mmHg 80%
01:00 +10°C° 0 mm 2 m/s 753 mmHg 83%
02:00 +10°C° 0 mm 2 m/s 753 mmHg 85%
03:00 +9°C° 0 mm 2 m/s 752 mmHg 87%
04:00 +9°C° 0 mm 3 m/s 752 mmHg 89%
05:00 +10°C° 0 mm 3 m/s 753 mmHg 86%
06:00 +10°C° 0 mm 3 m/s 753 mmHg 83%
07:00 +11°C° 0 mm 3 m/s 754 mmHg 80%
08:00 +12°C° 0 mm 4 m/s 754 mmHg 75%
09:00 +13°C° 0 mm 4 m/s 754 mmHg 71%
10:00 +14°C° 0 mm 4 m/s 755 mmHg 66%
11:00 +15°C° 0.1 mm 5 m/s 755 mmHg 65%
12:00 +15°C° 0.1 mm 5 m/s 754 mmHg 64%
13:00 +15°C° 0.1 mm 5 m/s 754 mmHg 63%
14:00 +15°C° 0.1 mm 5 m/s 754 mmHg 63%
15:00 +15°C° 0.1 mm 5 m/s 754 mmHg 63%
16:00 +15°C° 0.1 mm 4 m/s 754 mmHg 63%
17:00 +14°C° 0.1 mm 4 m/s 754 mmHg 67%
18:00 +13°C° 0.1 mm 3 m/s 754 mmHg 72%
19:00 +13°C° 0.1 mm 2 m/s 755 mmHg 77%
20:00 +12°C° 0 mm 2 m/s 755 mmHg 78%
21:00 +10°C° 0 mm 2 m/s 755 mmHg 80%
22:00 +9°C° 0 mm 2 m/s 755 mmHg 82%
23:00 +9°C° 0 mm 2 m/s 755 mmHg 84%

20 Mai, Jeudi

Heure Température Précipitation Vent Pression Humidité
00:00 +9°C° 0 mm 2 m/s 756 mmHg 86%
01:00 +9°C° 0 mm 3 m/s 756 mmHg 88%
02:00 +8°C° 0 mm 3 m/s 756 mmHg 88%
03:00 +8°C° 0 mm 3 m/s 756 mmHg 88%
04:00 +8°C° 0 mm 3 m/s 757 mmHg 88%
05:00 +9°C° 0 mm 3 m/s 757 mmHg 83%
06:00 +10°C° 0 mm 4 m/s 757 mmHg 77%
07:00 +11°C° 0 mm 4 m/s 758 mmHg 71%
08:00 +13°C° 0 mm 5 m/s 758 mmHg 67%
09:00 +14°C° 0 mm 5 m/s 758 mmHg 63%
10:00 +15°C° 0 mm 5 m/s 758 mmHg 59%
11:00 +15°C° 0.1 mm 5 m/s 758 mmHg 58%
12:00 +16°C° 0.1 mm 5 m/s 757 mmHg 56%
13:00 +17°C° 0.1 mm 4 m/s 757 mmHg 54%
14:00 +17°C° 0 mm 4 m/s 757 mmHg 55%
15:00 +17°C° 0 mm 4 m/s 757 mmHg 56%
16:00 +17°C° 0 mm 4 m/s 757 mmHg 57%
17:00 +16°C° 0 mm 3 m/s 757 mmHg 61%
18:00 +15°C° 0 mm 2 m/s 757 mmHg 65%
19:00 +13°C° 0 mm 1 m/s 757 mmHg 68%
20:00 +13°C° 0 mm 1 m/s 757 mmHg 70%
21:00 +12°C° 0 mm 1 m/s 757 mmHg 71%
22:00 +11°C° 0 mm 1 m/s 757 mmHg 72%
23:00 +10°C° 0 mm 2 m/s 757 mmHg 74%
Voir plus

Nous avons besoin de votre consentement

Meteoprog et ses fournisseurs de services peuvent stocker et accéder à des données personnelles telles que des cookies, des identifiants d'appareils ou d'autres technologies similaires sur votre appareil et traiter ces données pour personnaliser le contenu et les publicités, ainsi que pour fournir des fonctionnalités de médias sociaux et analyser le trafic.

  • Stocker et/ou accéder à des informations sur votre appareil

    Des cookies, des identifiants d'appareils ou d'autres informations peuvent être stockés ou accessibles sur votre appareil aux fins indiquées ci-dessus.

  • Annonces et contenus personnalisés, mesure des annonces et des contenus, connaissance de l'audience et développement de produits

    Les annonces et le contenu peuvent être personnalisés en fonction d'un profil. D'autres données peuvent être ajoutées pour mieux personnaliser les annonces et le contenu. Les performances des publicités et du contenu peuvent être mesurées. Il est possible d'obtenir des informations sur le public qui a vu les publicités et le contenu. Ces données peuvent être utilisées pour développer ou améliorer l'expérience de l'utilisateur, les systèmes et les logiciels.

En cliquant sur "J'accepte", vous autorisez l'utilisation de cookies, des identifiants d'appareils, des balises web ou d'autres technologies similaires. Vos paramètres peuvent être modifiés dans le navigateur de votre appareil.

Dans certains cas, des intérêts légitimes peuvent être invoqués plutôt qu'un consentement. Vous pouvez en savoir plus à ce sujet dans notre Politique de confidentialité et de cookies.